カタログに戻る

EUTE W3B

運用中通信HEO
NORAD 37206·PAYLOAD·🇪🇺 EU

打ち上げ Oct 28, 2010 から Guiana Space Centre

Loading…

次のパス (今後24時間)

TLE

最新Source: Space-Track

元期: Sep 14, 2026, 20:08 UTC

1 37206U 10056A   26257.83908269  .00014130  00000-0  16943-2 0  9991
2 37206   2.5030 359.9971 6880031 163.5921 241.4818  2.81900154144698

AllMySatでEUTE W3Bをリアルタイム追跡

Download on the App Store